Other Public Products
Issued by NWS Charleston, SC

Current Version | Previous Version | Text Only | Print | Product List | Glossary Off
Versions: 1 2 3 4 5 6 7 8 9 10 11 12 13 14 15 16 17 18 19 20 21 22 23 24 25 26 27 28 29 30 31 32 33 34 35 36 37 38 39 40 41 42 43 44 45 46 47 48 49 50

000
FPUS82 KCHS 250712
OPUCHS

TEST...KCHS/KSAV Gateway Observations...TEST
National Weather Service Charleston SC
300 AM EDT SUN JUN 25 2017

NOTE: "fair" indicates few or no clouds below 12,000 feet with no
significant weather and/or obstructions to visibility.

SCZ050-WAZ558-NCZ071-TXZ119-213-PAZ071-DCZ001-FLZ074-172-MI076-
NYZ176-178-MAZ016-IL014-TNZ027-NJZ106-GAZ044-MD014-250800-

...Gateway Observations for Charleston International...

CITY           SKY/WX    TMP DP  RH WIND       PRES   REMARKS
Chas Airport   CLOUDY    78  75  90 SW9       30.04F
Seattle        CLEAR     75  52  44 N15       29.98S
Charlotte      CLOUDY    70  67  90 N5        30.04F
Dallas DFW     PTCLDY    73  64  73 NE5       30.17S
Dallas Love    MOCLDY    74  63  68 NE3       30.18S
Philladelphia  CLEAR     74  59  59 NW5       29.94R
Wash National  PTCLDY    77  58  51 NW8       29.97S
Baltimore      PTCLDY    68  61  78 W6        29.95F
Miami          PTCLDY    83  74  74 E9        30.08F
Detroit        PTCLDY    60  49  66 W6        30.01S
Newark         MOCLDY    73  58  59 NW6       29.92R
Laguardia      CLOUDY    73  61  65 N8        29.91S
J F K          PTCLDY    73  60  63 N5        29.92S
Boston Logan   CLOUDY    73  53  49 W7        29.86S
Ft. Lauderdale PTCLDY    82  75  79 SE9       30.07F
Chicago O`Hare PTCLDY    57  50  77 W8        30.05S
Chicago Midway MOCLDY    62  49  62 W10       30.05S
Houston Bush   CLOUDY    78  74  87 CALM      30.10S
Houston Hobby  CLOUDY    79  75  87 CALM      30.08F
Nashville      MOCLDY    65  57  75 CALM      30.17S
Atlanta        PTCLDY    71  69  93 N6        30.08F

$$

GAZ044-118-TXZ119-213-NCZ071-DCZ001-MDZ014-506-PAZ021-071-NJZ106-
NYZ176-178-MAZ106-OHZ011-021-055-MIZ076-KYZ091-ILZ014-INZ047-
MNZ060-ONZ431-250800-

...Gateway Observations for Savannah International...

CITY           SKY/WX    TMP DP  RH WIND       PRES   REMARKS
Savannah Arpt  PTCLDY    79  73  82 CALM      30.05S
Atlanta        PTCLDY    71  69  93 N6        30.08F
Charlotte      CLOUDY    70  67  90 N5        30.04F
Dallas DFW     PTCLDY    73  64  73 NE5       30.17S
Houston Bush   CLOUDY    78  74  87 CALM      30.10S
Wash National  PTCLDY    77  58  51 NW8       29.97S
Wash Dulles    PTCLDY    65  59  81 CALM      29.98F
Baltimore      PTCLDY    68  61  78 W6        29.95F
Philadelphia   CLEAR     74  59  59 NW5       29.94R
Newark         MOCLDY    73  58  59 NW6       29.92R
Laguardia      CLOUDY    73  61  65 N8        29.91S
J F K          PTCLDY    73  60  63 N5        29.92S
Boston         CLOUDY    73  53  49 W7        29.86S
Pittsburg      PTCLDY    62  57  83 W6        30.02S
Akron          PTCLDY    62  54  74 W3        30.03F
Cleveland      PTCLDY    64  52  64 SW6       30.03S
Cincinnati     PTCLDY    59  51  75 W6        30.11S
Columbus       CLEAR     59  52  77 W6        30.07S
Detroit        PTCLDY    60  49  66 W6        30.01S
Chicago O`Hare PTCLDY    57  50  77 W8        30.05S
Minneapolis    MOCLDY    57  48  72 NW9       30.07F
Indianapolis   CLEAR     56  50  80 SW6       30.11F
Toronto Canada PTCLDY    59  54  82 W6        29.92S

$$




USA.gov is the U.S. government's official web portal to all federal, state and local government web resources and services.